This is the latest recevied weather packets stored in our database for station/object IZ3MEZ-13. If no packets are shown the sender has not sent any weather packets the latest 1 day(s).
| Time | Temp. | Humidity | Pressure | Rain* | Wind** | Luminosity | Snow |
|---|---|---|---|---|---|---|---|
| 1777983020 | 16.11° C | 81% | 1015.6 hPa | 0 mm | 0 m/s | 28 W/m² | - |
| 1777982727 | 16.67° C | 80% | 1015.6 hPa | 0 mm | 0 m/s | 22 W/m² | - |
| 1777982118 | 17.22° C | 78% | 1015.6 hPa | 0 mm | 0 m/s | 58 W/m² | - |
| 1777981523 | 17.78° C | 78% | 1015.6 hPa | 0 mm | 0 m/s | 147 W/m² | - |
| 1777980919 | 17.78° C | 79% | 1015.5 hPa | 0 mm | 0 m/s | 211 W/m² | - |
| 1777980320 | 17.22° C | 79% | 1015.6 hPa | 0 mm | 0 m/s | 193 W/m² | - |
| 1777979117 | 17.78° C | 80% | 1015.5 hPa | 0 mm | 0 m/s | 196 W/m² | - |
| 1777978520 | 17.78° C | 79% | 1015.5 hPa | 0 mm | 0 m/s | 209 W/m² | - |
| 1777977916 | 17.22° C | 78% | 1015.8 hPa | 0 mm | 0 m/s | 165 W/m² | - |
| 1777976722 | 17.78° C | 78% | 1016.2 hPa | 0 mm | 0 m/s | 128 W/m² | - |
| 1777976118 | 17.22° C | 79% | 1016.1 hPa | 0.25 mm | 0 m/s | 179 W/m² | - |
| 1777974918 | 17.22° C | 81% | 1016 hPa | 0.51 mm | 0 m/s | 144 W/m² | - |
| 1777969518 | 16.67° C | 79% | 1015.7 hPa | 0 mm | 0 m/s | 62 W/m² | - |
| 1777967119 | 16.67° C | 81% | 1016 hPa | 0 mm | 0 m/s | 64 W/m² | - |
| 1777964726 | 16.67° C | 83% | 1015.5 hPa | 0 mm | 0 m/s | 68 W/m² | - |
| 1777963517 | 16.67° C | 87% | 1015.5 hPa | 0 mm | 0 m/s | 55 W/m² | - |
| 1777953916 | 15° C | 90% | 1014.8 hPa | 0 mm | 0 m/s | 0 W/m² | - |
| 1777953325 | 15° C | 90% | 1014.7 hPa | 0 mm | 0 m/s | 0 W/m² | - |
| 1777952722 | 15° C | 90% | 1014.8 hPa | 0 mm | 0 m/s | 0 W/m² | - |
| 1777952118 | 15° C | 90% | 1014.8 hPa | 0 mm | 0.45 m/s, 5° | 0 W/m² | - |
| 1777951527 | 14.44° C | 90% | 1014.8 hPa | 0 mm | 0 m/s | 0 W/m² | - |
| 1777950916 | 14.44° C | 89% | 1015 hPa | 0 mm | 0 m/s | 0 W/m² | - |
| 1777950324 | 14.44° C | 89% | 1014.9 hPa | 0 mm | 0 m/s | 0 W/m² | - |
| 1777949721 | 14.44° C | 89% | 1015 hPa | 0 mm | 0 m/s | 0 W/m² | - |
| 1777949118 | 14.44° C | 89% | 1015 hPa | 0 mm | 0 m/s | 0 W/m² | - |
* Rain latest hour (hover to see other rain measurements)
** Current wind speed in m/s (hover to see current wind gust speed)